TimeCDT,TemperatureF,Dew PointF,Humidity,Sea Level PressureIn,VisibilityMPH,Wind Direction,Wind SpeedMPH,Gust SpeedMPH,PrecipitationIn,Events,Conditions,WindDirDegrees,DateUTC
12:13 AM,37.4,35.6,93,29.92,10.0,Calm,Calm,-,N/A,,Clear,0,2012-10-15 05:13:00
12:33 AM,35.6,35.6,100,29.92,10.0,Calm,Calm,-,N/A,,Clear,0,2012-10-15 05:33:00
12:53 AM,35.6,33.8,93,29.92,10.0,Calm,Calm,-,N/A,,Clear,0,2012-10-15 05:53:00
1:13 AM,35.6,35.6,100,29.92,5.0,Calm,Calm,-,N/A,,Clear,0,2012-10-15 06:13:00
1:33 AM,37.4,35.6,93,29.92,7.0,Calm,Calm,-,N/A,,Clear,0,2012-10-15 06:33:00
1:53 AM,33.8,33.8,100,29.92,2.0,Calm,Calm,-,N/A,,Clear,0,2012-10-15 06:53:00
2:12 AM,33.8,33.8,100,29.93,1.5,WSW,4.6,-,N/A,,Mist,250,2012-10-15 07:12:00
2:33 AM,35.6,35.6,100,29.93,7.0,Calm,Calm,-,N/A,,Clear,0,2012-10-15 07:33:00
2:53 AM,35.6,35.6,100,29.92,10.0,Calm,Calm,-,N/A,,Clear,0,2012-10-15 07:53:00
3:13 AM,33.8,33.8,100,29.92,10.0,Calm,Calm,-,N/A,,Clear,0,2012-10-15 08:13:00
3:33 AM,35.6,35.6,100,29.91,7.0,SSE,3.5,-,N/A,,Clear,150,2012-10-15 08:33:00
3:52 AM,35.6,35.6,100,29.91,4.0,Calm,Calm,-,N/A,,Clear,0,2012-10-15 08:52:00
4:13 AM,33.8,33.8,100,29.90,7.0,Calm,Calm,-,N/A,,Clear,0,2012-10-15 09:13:00
4:53 AM,33.8,33.8,100,29.90,10.0,ESE,3.5,-,N/A,,Clear,120,2012-10-15 09:53:00
5:13 AM,33.8,33.8,100,29.90,7.0,Calm,Calm,-,N/A,,Clear,0,2012-10-15 10:13:00
5:32 AM,32.0,32.0,100,29.90,7.0,Calm,Calm,-,N/A,,Clear,0,2012-10-15 10:32:00
5:53 AM,33.8,33.8,100,29.90,5.0,South,3.5,-,N/A,,Clear,190,2012-10-15 10:53:00
6:13 AM,33.8,33.8,100,29.90,2.5,South,4.6,-,N/A,,Clear,180,2012-10-15 11:13:00
6:32 AM,33.8,33.8,100,29.90,3.0,South,4.6,-,N/A,,Clear,180,2012-10-15 11:32:00
7:13 AM,35.6,35.6,100,29.91,4.0,SSE,5.8,-,N/A,,Clear,160,2012-10-15 12:13:00
7:32 AM,33.8,33.8,100,29.91,2.0,SSE,5.8,-,N/A,,Clear,160,2012-10-15 12:32:00
7:53 AM,33.8,33.8,100,29.91,3.0,SSE,5.8,-,N/A,,Clear,160,2012-10-15 12:53:00
8:13 AM,35.6,35.6,100,29.91,5.0,SSE,4.6,-,N/A,,Clear,150,2012-10-15 13:13:00
8:32 AM,35.6,35.6,100,29.90,4.0,SE,5.8,-,N/A,,Clear,140,2012-10-15 13:32:00
8:53 AM,37.4,37.4,100,29.90,5.0,SE,4.6,-,N/A,,Clear,140,2012-10-15 13:53:00
9:13 AM,41.0,37.4,87,29.90,10.0,South,6.9,-,N/A,,Clear,170,2012-10-15 14:13:00
9:32 AM,42.8,37.4,81,29.90,10.0,South,5.8,-,N/A,,Clear,170,2012-10-15 14:32:00
9:53 AM,44.6,37.4,76,29.90,10.0,South,8.1,-,N/A,,Clear,170,2012-10-15 14:53:00
10:13 AM,46.4,39.2,76,29.90,10.0,South,6.9,-,N/A,,Clear,190,2012-10-15 15:13:00
10:32 AM,46.4,39.2,76,29.90,10.0,SSE,9.2,-,N/A,,Clear,160,2012-10-15 15:32:00
10:53 AM,48.2,39.2,71,29.89,10.0,South,8.1,-,N/A,,Clear,170,2012-10-15 15:53:00
11:13 AM,50.0,39.2,66,29.88,10.0,South,10.4,-,N/A,,Clear,170,2012-10-15 16:13:00
11:32 AM,51.8,39.2,62,29.88,10.0,South,12.7,-,N/A,,Clear,170,2012-10-15 16:32:00
11:53 AM,51.8,39.2,62,29.87,10.0,South,11.5,-,N/A,,Clear,180,2012-10-15 16:53:00
12:13 PM,51.8,37.4,58,29.85,10.0,South,13.8,-,N/A,,Clear,170,2012-10-15 17:13:00
12:32 PM,53.6,39.2,58,29.84,10.0,SSE,12.7,16.1,N/A,,Clear,160,2012-10-15 17:32:00
12:53 PM,53.6,37.4,54,29.83,10.0,SSE,13.8,-,N/A,,Clear,160,2012-10-15 17:53:00
1:13 PM,53.6,39.2,58,29.83,10.0,South,9.2,-,N/A,,Clear,170,2012-10-15 18:13:00
1:32 PM,53.6,39.2,58,29.82,10.0,South,12.7,-,N/A,,Clear,170,2012-10-15 18:32:00
1:53 PM,53.6,39.2,58,29.81,10.0,South,10.4,-,N/A,,Clear,170,2012-10-15 18:53:00
2:13 PM,53.6,37.4,54,29.80,10.0,SSE,10.4,-,N/A,,Scattered Clouds,160,2012-10-15 19:13:00
2:32 PM,53.6,37.4,54,29.78,10.0,SSE,12.7,-,N/A,,Scattered Clouds,160,2012-10-15 19:32:00
2:53 PM,55.4,37.4,51,29.77,10.0,SSE,13.8,-,N/A,,Scattered Clouds,160,2012-10-15 19:53:00
3:13 PM,55.4,37.4,51,29.76,10.0,SSE,15.0,-,N/A,,Clear,160,2012-10-15 20:13:00
3:33 PM,55.4,37.4,51,29.75,10.0,SSE,15.0,-,N/A,,Clear,160,2012-10-15 20:33:00
3:53 PM,55.4,37.4,51,29.74,10.0,SSE,13.8,-,N/A,,Clear,160,2012-10-15 20:53:00
4:13 PM,55.4,37.4,51,29.73,10.0,South,15.0,20.7,N/A,,Clear,170,2012-10-15 21:13:00
4:33 PM,55.4,37.4,51,29.73,10.0,SSE,15.0,20.7,N/A,,Clear,160,2012-10-15 21:33:00
4:53 PM,55.4,37.4,51,29.71,10.0,SSE,13.8,-,N/A,,Clear,160,2012-10-15 21:53:00
5:13 PM,55.4,37.4,51,29.71,10.0,SSE,13.8,-,N/A,,Clear,160,2012-10-15 22:13:00
5:33 PM,55.4,37.4,51,29.70,10.0,SSE,11.5,-,N/A,,Clear,160,2012-10-15 22:33:00
5:53 PM,55.4,37.4,51,29.69,10.0,SSE,15.0,18.4,N/A,,Clear,160,2012-10-15 22:53:00
6:13 PM,55.4,37.4,51,29.68,10.0,SSE,16.1,-,N/A,,Clear,160,2012-10-15 23:13:00
6:33 PM,55.4,37.4,51,29.68,10.0,South,13.8,-,N/A,,Clear,170,2012-10-15 23:33:00
6:52 PM,55.4,37.4,51,29.68,10.0,South,15.0,-,N/A,,Clear,170,2012-10-15 23:52:00
7:13 PM,55.4,37.4,51,29.68,10.0,SSE,12.7,-,N/A,,Clear,160,2012-10-16 00:13:00
7:33 PM,55.4,37.4,51,29.68,10.0,SSE,11.5,-,N/A,,Clear,160,2012-10-16 00:33:00
7:52 PM,53.6,37.4,54,29.67,10.0,SSE,12.7,-,N/A,,Clear,160,2012-10-16 00:52:00
8:13 PM,53.6,37.4,54,29.66,10.0,SSE,11.5,-,N/A,,Clear,160,2012-10-16 01:13:00
8:32 PM,53.6,37.4,54,29.66,10.0,SSE,11.5,-,N/A,,Clear,160,2012-10-16 01:32:00
8:53 PM,53.6,37.4,54,29.65,10.0,SSE,11.5,-,N/A,,Clear,160,2012-10-16 01:53:00
9:12 PM,53.6,37.4,54,29.65,10.0,SSE,12.7,-,N/A,,Clear,160,2012-10-16 02:12:00
9:33 PM,53.6,37.4,54,29.64,10.0,SSE,10.4,-,N/A,,Clear,150,2012-10-16 02:33:00
9:53 PM,53.6,37.4,54,29.64,10.0,SSE,10.4,-,N/A,,Clear,160,2012-10-16 02:53:00
10:12 PM,51.8,37.4,58,29.63,10.0,SSE,9.2,-,N/A,,Clear,150,2012-10-16 03:12:00
10:33 PM,51.8,37.4,58,29.62,10.0,SSE,8.1,-,N/A,,Clear,150,2012-10-16 03:33:00
10:53 PM,51.8,39.2,62,29.62,10.0,SSE,9.2,-,N/A,,Clear,160,2012-10-16 03:53:00
11:12 PM,53.6,39.2,58,29.61,10.0,SSE,9.2,-,N/A,,Clear,160,2012-10-16 04:12:00
11:33 PM,53.6,39.2,58,29.60,10.0,SSE,9.2,-,N/A,,Clear,160,2012-10-16 04:33:00
11:52 PM,53.6,39.2,58,29.59,10.0,SSE,11.5,-,N/A,,Scattered Clouds,160,2012-10-16 04:52:00